Time,TemperatureF,DewpointF,PressureIn,WindDirection,WindDirectionDegrees,WindSpeedMPH,WindSpeedGustMPH,Humidity,HourlyPrecipIn,Conditions,Clouds,dailyrainin,SolarRadiationWatts/m^2,SoftwareType,DateUTC
2013-02-27 00:00:00,71.9,-99.9,30.00,SE,137,1.0,3.0,0,0.00,,,0.00,0,weatherlink.com 1.10,2013-02-27 04:00:00,
2013-02-27 00:15:00,71.7,-99.9,30.00,East,86,0.0,8.0,0,0.00,,,0.00,0,weatherlink.com 1.10,2013-02-27 04:15:00,
2013-02-27 00:30:00,71.6,-99.9,30.00,East,81,1.0,5.0,0,0.00,,,0.00,0,weatherlink.com 1.10,2013-02-27 04:30:00,
2013-02-27 00:45:00,71.4,-99.9,30.00,ESE,107,1.0,3.0,0,0.00,,,0.00,0,weatherlink.com 1.10,2013-02-27 04:45:00,
2013-02-27 01:00:00,71.3,-99.9,29.99,East,92,0.0,3.0,0,0.00,,,0.00,0,weatherlink.com 1.10,2013-02-27 05:00:00,
2013-02-27 01:15:00,71.0,-99.9,29.99,East,92,0.0,2.0,0,0.00,,,0.00,0,weatherlink.com 1.10,2013-02-27 05:15:00,
2013-02-27 01:30:00,71.1,-99.9,29.98,South,179,0.0,4.0,0,0.00,,,0.00,0,weatherlink.com 1.10,2013-02-27 05:30:00,
2013-02-27 01:45:00,71.0,-99.9,29.98,ESE,106,0.0,3.0,0,0.00,,,0.00,0,weatherlink.com 1.10,2013-02-27 05:45:00,
2013-02-27 02:00:00,71.1,-99.9,29.97,ESE,102,2.0,7.0,0,0.00,,,0.00,0,weatherlink.com 1.10,2013-02-27 06:00:00,
2013-02-27 02:15:00,71.2,-99.9,29.96,ESE,111,3.0,5.0,0,0.00,,,0.00,0,weatherlink.com 1.10,2013-02-27 06:15:00,
2013-02-27 02:30:00,71.3,-99.9,29.96,ESE,111,2.0,5.0,0,0.00,,,0.00,0,weatherlink.com 1.10,2013-02-27 06:30:00,
2013-02-27 02:45:00,71.2,-99.9,29.96,ESE,117,0.0,3.0,0,0.00,,,0.00,0,weatherlink.com 1.10,2013-02-27 06:45:00,
2013-02-27 03:00:00,71.2,-99.9,29.96,East,95,0.0,3.0,0,0.00,,,0.00,0,weatherlink.com 1.10,2013-02-27 07:00:00,
2013-02-27 03:15:00,71.1,-99.9,29.96,East,101,0.0,5.0,0,0.00,,,0.00,0,weatherlink.com 1.10,2013-02-27 07:15:00,
2013-02-27 03:30:00,71.3,-99.9,29.96,East,101,0.0,2.0,0,0.00,,,0.00,0,weatherlink.com 1.10,2013-02-27 07:30:00,
2013-02-27 03:45:00,71.3,-99.9,29.96,SSE,156,0.0,1.0,0,0.00,,,0.00,0,weatherlink.com 1.10,2013-02-27 07:45:00,
2013-02-27 04:00:00,71.3,-99.9,29.96,ESE,103,0.0,5.0,0,0.00,,,0.00,0,weatherlink.com 1.10,2013-02-27 08:00:00,
2013-02-27 04:16:00,71.4,-99.9,29.96,SE,142,0.0,9.0,0,0.00,,,0.00,0,weatherlink.com 1.10,2013-02-27 08:16:00,
2013-02-27 04:30:00,71.2,-99.9,29.96,South,169,2.0,5.0,0,0.00,,,0.00,0,weatherlink.com 1.10,2013-02-27 08:30:00,
2013-02-27 04:45:00,71.3,-99.9,29.96,South,170,2.0,6.0,0,0.00,,,0.00,0,weatherlink.com 1.10,2013-02-27 08:45:00,
2013-02-27 05:00:00,71.5,-99.9,29.96,East,84,1.0,5.0,0,0.00,,,0.00,0,weatherlink.com 1.10,2013-02-27 09:00:00,
2013-02-27 05:16:00,71.5,-99.9,29.96,East,88,0.0,4.0,0,0.00,,,0.00,0,weatherlink.com 1.10,2013-02-27 09:16:00,
2013-02-27 05:31:00,71.6,-99.9,29.97,NE,41,0.0,4.0,0,0.00,,,0.00,0,weatherlink.com 1.10,2013-02-27 09:31:00,
2013-02-27 05:46:00,71.4,-99.9,29.97,East,86,0.0,4.0,0,0.00,,,0.00,0,weatherlink.com 1.10,2013-02-27 09:46:00,
2013-02-27 06:01:00,71.3,-99.9,29.97,ESE,111,1.0,5.0,0,0.00,,,0.00,0,weatherlink.com 1.10,2013-02-27 10:01:00,
2013-02-27 06:16:00,71.4,-99.9,29.98,East,101,0.0,3.0,0,0.00,,,0.00,0,weatherlink.com 1.10,2013-02-27 10:16:00,
2013-02-27 06:31:00,71.4,-99.9,29.98,East,86,0.0,3.0,0,0.00,,,0.00,0,weatherlink.com 1.10,2013-02-27 10:31:00,
2013-02-27 06:46:00,71.4,-99.9,29.99,East,86,0.0,2.0,0,0.00,,,0.00,0,weatherlink.com 1.10,2013-02-27 10:46:00,
2013-02-27 07:01:00,71.4,-99.9,29.99,East,86,0.0,1.0,0,0.00,,,0.00,14,weatherlink.com 1.10,2013-02-27 11:01:00,
2013-02-27 07:16:00,71.6,-99.9,29.99,South,173,0.0,3.0,0,0.00,,,0.00,25,weatherlink.com 1.10,2013-02-27 11:16:00,
2013-02-27 07:31:00,71.8,-99.9,30.00,SSW,197,1.0,3.0,0,0.00,,,0.00,47,weatherlink.com 1.10,2013-02-27 11:31:00,
2013-02-27 07:46:00,72.0,-99.9,30.00,South,190,0.0,1.0,0,0.00,,,0.00,37,weatherlink.com 1.10,2013-02-27 11:46:00,
2013-02-27 08:01:00,72.3,-99.9,30.00,South,190,0.0,0.0,0,0.00,,,0.00,72,weatherlink.com 1.10,2013-02-27 12:01:00,
2013-02-27 08:17:00,73.6,-99.9,30.01,East,90,0.0,3.0,0,0.00,,,0.00,137,weatherlink.com 1.10,2013-02-27 12:17:00,
2013-02-27 08:32:00,75.0,-99.9,30.01,SSE,163,1.0,4.0,0,0.00,,,0.00,116,weatherlink.com 1.10,2013-02-27 12:32:00,
2013-02-27 08:47:00,75.2,-99.9,30.01,ESE,105,1.0,7.0,0,0.00,,,0.00,223,weatherlink.com 1.10,2013-02-27 12:47:00,
2013-02-27 09:02:00,76.0,-99.9,30.01,South,180,5.0,10.0,0,0.00,,,0.00,454,weatherlink.com 1.10,2013-02-27 13:02:00,
2013-02-27 09:17:00,76.8,-99.9,30.02,SSW,193,3.0,12.0,0,0.00,,,0.00,522,weatherlink.com 1.10,2013-02-27 13:17:00,
2013-02-27 09:32:00,77.4,-99.9,30.02,ESE,122,0.0,10.0,0,0.00,,,0.00,334,weatherlink.com 1.10,2013-02-27 13:32:00,
2013-02-27 09:47:00,78.6,-99.9,30.03,SSE,161,3.0,9.0,0,0.00,,,0.00,207,weatherlink.com 1.10,2013-02-27 13:47:00,
2013-02-27 10:02:00,76.0,-99.9,30.03,ESE,115,5.0,8.0,0,0.00,,,0.00,207,weatherlink.com 1.10,2013-02-27 14:02:00,
2013-02-27 10:17:00,76.2,-99.9,30.03,ESE,119,0.0,9.0,0,0.00,,,0.00,229,weatherlink.com 1.10,2013-02-27 14:17:00,
2013-02-27 10:32:00,76.3,-99.9,30.03,ESE,112,0.0,9.0,0,0.00,,,0.00,172,weatherlink.com 1.10,2013-02-27 14:32:00,
2013-02-27 10:47:00,79.1,-99.9,30.02,East,88,7.0,9.0,0,0.00,,,0.00,874,weatherlink.com 1.10,2013-02-27 14:47:00,
2013-02-27 11:02:00,82.1,20.0,30.02,South,178,5.0,8.0,10,0.00,,,0.00,858,weatherlink.com 1.10,2013-02-27 15:02:00,
2013-02-27 11:18:00,80.4,-99.9,30.02,East,97,9.0,22.0,0,0.00,,,0.00,925,weatherlink.com 1.10,2013-02-27 15:18:00,
2013-02-27 11:33:00,80.6,-2.0,30.01,ESE,123,3.0,13.0,4,0.00,,,0.00,898,weatherlink.com 1.10,2013-02-27 15:33:00,
2013-02-27 11:48:00,81.5,8.0,30.01,SW,236,1.0,13.0,6,0.00,,,0.00,884,weatherlink.com 1.10,2013-02-27 15:48:00,
2013-02-27 12:03:00,82.5,49.0,30.00,East,92,3.0,14.0,31,0.00,,,0.00,900,weatherlink.com 1.10,2013-02-27 16:03:00,
2013-02-27 12:18:00,82.2,48.0,30.00,SSW,202,3.0,12.0,30,0.00,,,0.00,939,weatherlink.com 1.10,2013-02-27 16:18:00,
2013-02-27 12:33:00,81.7,47.0,29.99,SE,134,2.0,11.0,30,0.00,,,0.00,148,weatherlink.com 1.10,2013-02-27 16:33:00,
2013-02-27 12:48:00,82.0,52.0,29.99,ESE,119,3.0,16.0,35,0.00,,,0.00,956,weatherlink.com 1.10,2013-02-27 16:48:00,
2013-02-27 13:03:00,82.2,54.0,29.98,NE,52,1.0,15.0,38,0.00,,,0.00,933,weatherlink.com 1.10,2013-02-27 17:03:00,
2013-02-27 13:18:00,82.7,58.0,29.97,ESE,115,2.0,11.0,43,0.00,,,0.00,904,weatherlink.com 1.10,2013-02-27 17:18:00,
2013-02-27 13:33:00,82.5,57.0,29.97,SE,126,1.0,14.0,42,0.00,,,0.00,889,weatherlink.com 1.10,2013-02-27 17:33:00,
2013-02-27 13:48:00,82.8,56.0,29.96,SSE,161,4.0,9.0,40,0.00,,,0.00,875,weatherlink.com 1.10,2013-02-27 17:48:00,
2013-02-27 14:03:00,83.0,58.0,29.96,East,82,2.0,10.0,42,0.00,,,0.00,882,weatherlink.com 1.10,2013-02-27 18:03:00,
2013-02-27 14:18:00,82.5,58.0,29.95,East,92,6.0,13.0,43,0.00,,,0.00,847,weatherlink.com 1.10,2013-02-27 18:18:00,
2013-02-27 14:34:00,82.9,59.0,29.95,SSE,147,3.0,10.0,44,0.00,,,0.00,819,weatherlink.com 1.10,2013-02-27 18:34:00,
2013-02-27 14:49:00,83.5,59.0,29.94,East,96,1.0,9.0,44,0.00,,,0.00,777,weatherlink.com 1.10,2013-02-27 18:49:00,
2013-02-27 15:04:00,83.5,60.0,29.93,SE,134,3.0,11.0,45,0.00,,,0.00,728,weatherlink.com 1.10,2013-02-27 19:04:00,
2013-02-27 15:19:00,82.9,58.0,29.93,SE,128,3.0,12.0,43,0.00,,,0.00,712,weatherlink.com 1.10,2013-02-27 19:19:00,
2013-02-27 15:34:00,83.6,60.0,29.93,SSE,162,4.0,7.0,45,0.00,,,0.00,647,weatherlink.com 1.10,2013-02-27 19:34:00,
2013-02-27 15:49:00,82.4,56.0,29.93,SSE,166,3.0,13.0,41,0.00,,,0.00,589,weatherlink.com 1.10,2013-02-27 19:49:00,
2013-02-27 16:04:00,81.7,52.0,29.92,East,100,1.0,9.0,36,0.00,,,0.00,506,weatherlink.com 1.10,2013-02-27 20:04:00,
2013-02-27 16:19:00,81.1,41.0,29.93,East,88,5.0,10.0,24,0.00,,,0.00,497,weatherlink.com 1.10,2013-02-27 20:19:00,
2013-02-27 16:34:00,81.4,49.0,29.93,East,79,2.0,9.0,32,0.00,,,0.00,431,weatherlink.com 1.10,2013-02-27 20:34:00,
2013-02-27 16:49:00,81.4,31.0,29.93,SSE,152,2.0,9.0,16,0.00,,,0.00,380,weatherlink.com 1.10,2013-02-27 20:49:00,
2013-02-27 17:04:00,80.3,25.0,29.93,ENE,72,7.0,10.0,13,0.00,,,0.00,329,weatherlink.com 1.10,2013-02-27 21:04:00,
2013-02-27 17:19:00,80.4,11.0,29.93,ESE,120,0.0,6.0,7,0.00,,,0.00,274,weatherlink.com 1.10,2013-02-27 21:19:00,
2013-02-27 17:34:00,79.6,3.0,29.93,East,100,5.0,10.0,5,0.00,,,0.00,209,weatherlink.com 1.10,2013-02-27 21:34:00,
2013-02-27 17:50:00,78.3,-99.9,29.93,SE,138,3.0,11.0,0,0.00,,,0.00,93,weatherlink.com 1.10,2013-02-27 21:50:00,
2013-02-27 18:05:00,75.6,-99.9,29.93,ESE,120,4.0,12.0,0,0.00,,,0.00,40,weatherlink.com 1.10,2013-02-27 22:05:00,
2013-02-27 18:20:00,73.9,-99.9,29.94,ESE,116,1.0,11.0,0,0.00,,,0.00,12,weatherlink.com 1.10,2013-02-27 22:20:00,
2013-02-27 18:35:00,73.1,-99.9,29.94,East,87,1.0,8.0,0,0.00,,,0.00,0,weatherlink.com 1.10,2013-02-27 22:35:00,
2013-02-27 18:50:00,72.6,-99.9,29.95,East,80,7.0,7.0,0,0.00,,,0.00,0,weatherlink.com 1.10,2013-02-27 22:50:00,
2013-02-27 19:05:00,72.2,-99.9,29.95,East,84,0.0,7.0,0,0.00,,,0.00,0,weatherlink.com 1.10,2013-02-27 23:05:00,
2013-02-27 19:20:00,72.1,-99.9,29.96,SE,139,1.0,5.0,0,0.00,,,0.00,0,weatherlink.com 1.10,2013-02-27 23:20:00,
2013-02-27 19:35:00,71.9,-99.9,29.96,SE,130,1.0,8.0,0,0.00,,,0.00,0,weatherlink.com 1.10,2013-02-27 23:35:00,
2013-02-27 19:50:00,71.8,-99.9,29.96,SSE,160,3.0,6.0,0,0.00,,,0.00,0,weatherlink.com 1.10,2013-02-27 23:50:00,
2013-02-27 20:05:00,71.6,-99.9,29.97,SE,140,0.0,6.0,0,0.00,,,0.00,0,weatherlink.com 1.10,2013-02-28 00:05:00,
2013-02-27 20:20:00,71.8,-99.9,29.98,ESE,104,1.0,7.0,0,0.00,,,0.00,0,weatherlink.com 1.10,2013-02-28 00:20:00,
2013-02-27 20:35:00,71.8,-99.9,29.98,SSE,148,0.0,9.0,0,0.00,,,0.00,0,weatherlink.com 1.10,2013-02-28 00:35:00,
2013-02-27 20:50:00,71.8,-99.9,29.98,SE,129,3.0,6.0,0,0.00,,,0.00,0,weatherlink.com 1.10,2013-02-28 00:50:00,
2013-02-27 21:00:00,-999.0,-99.9,0.00,North,-999,-999.0,-999.0,-999,0.00,,,0.00,,weatherlink.com 1.10,2013-02-28 01:00:00,
2013-02-27 21:13:00,-999.0,-99.9,29.99,North,-999,-999.0,-999.0,-999,0.00,,,0.00,,weatherlink.com 1.10,2013-02-28 01:13:00,
2013-02-27 21:29:00,71.7,-99.9,29.99,SSE,150,1.0,7.0,0,0.00,,,0.00,0,weatherlink.com 1.10,2013-02-28 01:29:00,
2013-02-27 21:44:00,71.6,-99.9,29.99,ESE,116,0.0,7.0,0,0.00,,,0.00,0,weatherlink.com 1.10,2013-02-28 01:44:00,
2013-02-27 21:59:00,71.5,-99.9,30.00,ESE,111,2.0,6.0,0,0.00,,,0.00,0,weatherlink.com 1.10,2013-02-28 01:59:00,
2013-02-27 22:13:00,71.4,-99.9,29.99,SE,136,0.0,4.0,0,0.00,,,0.00,0,weatherlink.com 1.10,2013-02-28 02:13:00,
2013-02-27 22:28:00,71.3,-99.9,29.99,SE,138,2.0,8.0,0,0.00,,,0.00,0,weatherlink.com 1.10,2013-02-28 02:28:00,
2013-02-27 22:43:00,71.3,-99.9,30.00,South,169,3.0,8.0,0,0.00,,,0.00,0,weatherlink.com 1.10,2013-02-28 02:43:00,
2013-02-27 22:58:00,71.1,-99.9,30.00,East,90,3.0,7.0,0,0.00,,,0.00,0,weatherlink.com 1.10,2013-02-28 02:58:00,
2013-02-27 23:13:00,70.9,-99.9,30.00,SSE,153,2.0,8.0,0,0.00,,,0.00,0,weatherlink.com 1.10,2013-02-28 03:13:00,
2013-02-27 23:28:00,70.9,-99.9,29.99,SSE,163,0.0,7.0,0,0.00,,,0.00,0,weatherlink.com 1.10,2013-02-28 03:28:00,
2013-02-27 23:43:00,70.9,-99.9,29.99,SE,139,2.0,7.0,0,0.00,,,0.00,0,weatherlink.com 1.10,2013-02-28 03:43:00,
2013-02-27 23:58:00,70.7,-99.9,29.99,South,176,2.0,6.0,0,0.00,,,0.00,0,weatherlink.com 1.10,2013-02-28 03:58:00,